Location: Santaluz Observatory
(32.9930°N, 117.1510°W)
Time: 09:38:30
(UTC-07:00)

Daily predictions for brighter satellites

Satellite Brightness Start Highest point End
(mag) Time Altitude Azimuth Time Altitude Azimuth Time Altitude Azimuth
Cosmos 1833 Rocket 2.8 20:07:00 10° NNW 20:12:40 89° ENE 20:18:17 10° SSE
NOSS 3-2 (A) 3.9 20:08:10 10° SW 20:14:02 70° WNW 20:20:24 10° NNE
Helios 1B rocket 3.8 20:13:19 10° NE 20:16:17 19° E 20:19:14 10° SE
Cosmos 1315 Rocket 2.8 20:13:29 10° S 20:17:29 84° E 20:21:33 10° N
Cosmos 1891 Rocket 4.5 20:11:56 10° N 20:18:04 75° E 20:24:18 10° S
USA 186 1.9 20:17:41 10° SE 20:20:06 37° ENE 20:22:42 10° N
ISS -3.5 20:17:38 10° SW 20:20:51 70° NW 20:24:05 10° NE
Cosmos 1892 3.3 20:17:39 10° SSE 20:21:12 35° E 20:24:43 10° NNE
CZ-2D R/B 3.3 20:19:42 10° SSE 20:23:36 84° ENE 20:27:30 10° N
Tsikada Rocket 4.0 20:17:50 10° S 20:24:02 69° E 20:30:10 10° NNE
Cosmos 1943 Rocket 3.2 20:27:00 10° SSE 20:31:17 23° ESE 20:35:33 10° NE
Tiangong 2 2.9 20:29:47 10° NW 20:32:32 25° NNE 20:35:16 10° ENE
NOSS 3-2 (C) 3.9 20:28:57 10° SW 20:34:48 66° WNW 20:41:11 10° NNE
Cosmos 2034 Rocket 4.1 20:31:36 10° N 20:37:48 85° W 20:43:57 10° S
Cosmos 2344 4.3 20:31:53 10° SSE 20:38:19 29° ESE 20:44:46 10° NE
Envisat 3.1 20:34:32 10° SSE 20:39:32 64° ENE 20:44:34 10° N
Cosmos 2242 Rocket 4.1 20:37:33 10° NNW 20:41:58 62° W 20:46:18 10° S
Cosmos 990 Rocket 4.3 20:37:30 10° SSW 20:42:40 72° WNW 20:47:53 10° NNE
CZ-4B DEB 4.4 20:41:44 14° E 20:42:50 16° ENE 20:44:46 10° NNE
Cosmos 1933 Rocket 4.3 20:41:21 10° SSW 20:45:35 56° W 20:49:52 10° N
Helios 1A 3.7 20:42:20 13° SE 20:45:42 37° ENE 20:49:34 10° N
CENTAUR R/B 2.6 20:43:23 10° S 20:48:56 50° ESE 20:55:08 10° NE
Molniya-1 2.6 20:47:04 10° SW 20:49:09 70° WNW 20:50:50 10° NNE
COSMOS 2455 2.8 20:44:21 10° SSW 20:50:22 87° ESE 20:56:24 10° NNE
Cosmos 2369 Rocket 2.1 20:47:18 10° SSW 20:52:54 72° ESE 20:58:34 10° NNE
Resurs 01 Rocket 2.7 20:49:14 10° S 20:53:28 46° W 20:57:44 10° NNW
Cosmos 1125 Rocket 4.0 20:48:47 10° SSE 20:53:37 38° E 20:58:26 10° NE
OAO 2 Rocket 3.6 20:48:55 10° W 20:53:53 56° SSW 20:57:22 18° SE
Cosmos 1862 Rocket 3.9 20:49:31 10° NNW 20:53:59 69° W 20:58:26 10° S
Shenzhou-11 Module 2.9 20:52:48 10° NW 20:55:43 41° NNE 20:57:31 20° E
Milstar 3 3.9 20:42:17 10° WSW 20:56:03 51° SSE 21:03:20 12° E
Lacrosse 5 rocket 1.7 20:53:08 10° SW 20:56:38 57° NW 21:00:12 10° NNE
Cosmos 1606 4.3 20:55:39 10° NE 20:58:13 17° ENE 20:58:52 17° E
YAOGAN 6 2.9 20:58:22 19° SE 21:00:43 49° ENE 21:04:18 10° N
Cosmos 1346 Rocket 2.7 20:57:46 10° N 21:01:46 76° E 21:05:00 15° SSE
Cosmos 1939 Rocket 2.9 21:00:52 12° SSE 21:04:41 90° NW 21:08:50 10° NNW
Delta 168 3.9 21:04:27 10° WSW 21:07:37 28° S 21:08:58 23° SSE
OE (NEXTSAT) 4.3 21:07:03 10° NW 21:10:36 81° NE 21:12:03 33° ESE
SL-19 R/B 4.4 21:05:49 11° SSE 21:11:13 88° WSW 21:17:16 10° NNW
Delta 7925 Rocket 4.3 21:07:48 10° SW 21:11:56 28° SSE 21:13:26 24° SE
GPS 2-04 Rocket1 3.0 21:10:44 10° WNW 21:14:24 55° N 21:16:29 22° ENE
Okean 1-7 3.3 21:13:43 10° N 21:17:59 48° E 21:19:40 31° SE
ATLAS 5 CENTAUR R/B 3.7 21:14:26 10° N 21:19:32 27° NE 21:22:41 19° E
Cosmos 2279 Rocket 4.4 21:13:41 10° N 21:19:37 44° E 21:22:39 26° SE
Meteor 1-29 3.2 21:19:42 10° N 21:23:11 69° WNW 21:26:23 12° SSW
Aureole 3 2.5 21:21:59 32° S 21:23:16 87° E 21:26:14 10° N
H-2A R/B 3.4 21:22:47 21° E 21:24:14 23° ENE 21:28:22 10° NNE
Hubble Space Telescope 3.1 21:24:56 10° SW 21:26:21 11° SSW 21:26:56 11° SSW
Cosmos 2142 Rocket 4.4 21:20:52 10° N 21:27:02 80° E 21:31:22 21° S
Cosmos 1408 2.5 21:26:50 37° SSE 21:28:09 71° E 21:31:52 10° N
Cosmos 1656 Rocket 4.3 21:29:16 31° ESE 21:29:42 31° ESE 21:34:30 10° NE
ARGOS 3.7 21:29:07 31° ESE 21:30:58 41° ENE 21:35:58 10° N
Cosmos 1703 Rocket 3.7 21:26:46 10° N 21:31:10 73° W 21:33:41 25° S
Cosmos 158 Rocket 4.5 21:26:52 10° N 21:31:26 38° ENE 21:32:34 33° E
Meteor 2-6 Rocket 4.5 21:27:52 10° N 21:33:44 57° E 21:36:17 33° SE
Cosmos 1733 Rocket 3.8 21:38:50 33° ENE 21:38:50 33° ENE 21:42:18 10° NNE
Cosmos 1825 2.1 21:38:01 40° S 21:39:17 86° W 21:43:05 10° N
Cosmos 1782 2.6 21:35:51 10° N 21:39:51 74° E 21:40:31 58° SSE
ERS-1 Rocket 2.9 21:43:33 37° SSE 21:45:34 89° E 21:50:38 10° NNW
SL-08 RB Rocket 4.2 21:45:10 41° E 21:45:42 43° ENE 21:50:07 10° N
Cosmos 2084 3.2 21:50:23 10° NW 21:54:15 72° WSW 21:54:26 70° SW
Cosmos 1862 3.1 21:55:14 78° ENE 21:55:14 78° ENE 21:59:06 10° N
Nimbus 7 Rocket 4.4 21:52:10 10° NNE 21:57:57 59° ESE 21:59:17 48° SSE
Cosmos 1048 Rocket 3.9 21:53:57 10° NNW 21:59:16 75° ENE 22:00:12 59° SE
Lacrosse 4 Rocket 2.2 21:58:05 10° N 22:02:08 41° NE 22:02:08 41° NE
MetOp-A 4.2 22:03:35 43° S 22:05:19 71° WSW 22:10:40 10° NNW
OAO 3 Copernicus 4.3 22:00:42 10° W 22:05:44 79° N 22:06:59 51° ENE
Tiangong 2 3.1 22:06:27 10° WNW 22:08:09 27° W 22:08:09 27° W
Terra 3.2 22:12:01 26° NE 22:12:01 26° NE 22:15:18 10° NNE
USA 215 3.4 22:09:49 43° ESE 22:11:55 63° NE 22:18:24 10° NW
Cosmos 1943 Rocket 3.5 22:09:32 10° SW 22:14:43 38° WNW 22:19:53 10° N
Cosmos 1340 3.6 22:15:22 10° NNW 22:18:27 47° WNW 22:18:27 47° WNW
DMSP B5D2-2 4.0 22:14:32 10° NNE 22:19:27 67° ENE 22:19:27 67° ENE
Cosmos 1674 Rocket 4.5 22:15:43 10° N 22:18:42 38° NNE 22:18:42 38° NNE
SPOT 1/Viking Rocket 3.4 22:22:09 81° ESE 22:22:18 83° ENE 22:27:31 10° N
SPOT 5 3.3 22:26:39 58° SW 22:27:21 64° WSW 22:32:39 10° NNW
H-2A R/B 4.1 22:31:06 17° NE 22:31:06 17° NE 22:32:32 10° NNE
Cosmos 1269 Rocket 4.5 22:30:25 10° NNW 22:35:32 52° WSW 22:35:49 51° WSW
Cosmos 1092 Rocket 3.8 22:36:34 77° S 22:37:05 89° E 22:43:15 10° N
Nadezhda 4 Rocket 4.3 22:35:52 42° SW 22:37:52 61° W 22:43:59 10° N
Cosmos 1833 4.4 22:42:23 10° NNW 22:47:58 64° W 22:47:58 64° W
Cosmos 2297 Rocket 4.4 22:57:22 10° NNE 23:00:02 14° NE 23:00:02 14° NE
H-2A ROCKET BODY 3.9 22:57:03 10° WSW 23:29:22 - ESE 22:58:45 25° WSW
H-2A R/B 3.2 23:03:26 37° W 23:03:26 37° W 23:08:18 10° NNW
ATLAS 5 CENTAUR R/B 2.9 22:58:27 10° NW 23:04:14 52° WSW 23:04:14 52° WSW
Cosmos 1867 4.2 22:59:11 10° NNW 23:03:23 51° N 23:03:23 51° N
Milstar 3 3.8 23:31:09 10° W 23:36:55 39° WSW 23:36:55 39° WSW
Lacrosse 4 Rocket 4.5 23:38:19 10° WNW 23:38:29 10° WNW 23:38:29 10° WNW
ATLAS CENTAUR R/B 4.4 23:48:33 13° NNW 23:48:33 13° NNW 23:49:18 10° NNW
Terra 4.1 23:50:55 18° WNW 23:50:55 18° WNW 23:52:46 10° NW
CZ-2C R/B 4.4 23:43:52 10° NNE 23:46:00 25° NNE 23:46:00 25° NNE
Cosmos 2227 Rocket 3.6 23:44:53 10° N 23:48:20 34° NNE 23:48:20 34° NNE
